MCMWTC BRIDGEPORT, CA, CA

1:44 AM PDT on April 24, 2017 (GMT -0700)
MCMWTC BRIDGEPORT, CA

Weather History for KBAN - December, 2013

Change the Weather History Date:

Thursday, December 19, 2013

  Actual Average (KTVL) Record (KTVL)
Temperature  
Mean Temperature 28 °F -  
Max Temperature 37 °F 39 °F 56 °F (1939)
Min Temperature 19 °F 20 °F -13 °F (1992)
Degree Days  
Heating Degree Days 37    
Moisture  
Dew Point 18 °F    
Average Humidity 69    
Maximum Humidity 78    
Minimum Humidity 59    
Precipitation  
Precipitation 0.00 in - - ()
Sea Level Pressure  
Sea Level Pressure 29.76 in    
Wind  
Wind Speed 6 mph (ESE)    
Max Wind Speed 15 mph    
Max Gust Speed 24 mph    
Visibility 6 miles    
Events Snow    
Averages and records for this station are not official NWS values.
T = Trace of Precipitation, MM = Missing Value Source: NWS Daily Summary

Daily Weather History Graph

Daily Weather History Graph

Search for Another Location

Airport or City:

Trip Planner

Search our weather history database for the weather conditions in past years. The results will help you decide how hot, cold, wet, or windy it might be!

Date:

Astronomy

Dec. 19, 2013 Rise Set
Actual Time 7:10 AM PST 4:40 PM PST
Civil Twilight 6:40 AM PST 5:09 PM PST
Nautical Twilight 6:07 AM PST 5:43 PM PST
Astronomical Twilight 5:35 AM PST 6:15 PM PST
Moon 7:08 PM PST (12/19) 8:33 AM PST (12/19)
Length of Visible Light 10h 29m
Length of Day
9h 29m
Waning Gibbous, 95% of the Moon is Illuminated
Dec 19
Waning Gibbous
Dec 25
Last Quarter
Jan 1
New
Jan 7
First Quarter
Jan 15
Full

Hourly Weather History & Observations

Time (PST) Temp. Windchill Dew Point Humidity Pressure Visibility Wind Dir Wind Speed Gust Speed Precip Events Conditions
12:52 AM 37.0 °F 30.4 °F 24.1 °F 59% 29.54 in 10.0 mi SW 9.2 mph - N/A   Overcast
1:52 AM 33.1 °F 27.7 °F 26.1 °F 75% 29.55 in 5.0 mi WSW 5.8 mph - 0.00 in Snow Light Snow
2:52 AM 32.0 °F - 23.0 °F 69% 29.54 in 10.0 mi Calm Calm - 0.00 in   Mostly Cloudy
3:52 AM 32.0 °F - 21.9 °F 66% 29.54 in 10.0 mi Calm Calm - N/A   Overcast
4:52 AM 32.0 °F 21.6 °F 21.0 °F 64% 29.53 in 10.0 mi North 15.0 mph 20.7 mph N/A   Overcast
5:52 AM 32.0 °F 28.7 °F 21.9 °F 66% 29.56 in 9.0 mi Variable 3.5 mph - 0.00 in Snow Light Snow
6:52 AM 30.0 °F - 21.9 °F 72% 29.59 in 10.0 mi Calm Calm - 0.00 in   Overcast
7:40 AM 30.0 °F 23.2 °F 21.9 °F 72% 29.66 in 2.5 mi ESE 6.9 mph - 0.00 in Snow Light Snow
7:52 AM 28.9 °F 25.2 °F 21.9 °F 75% 29.66 in 1.5 mi Variable 3.5 mph - 0.00 in Snow Light Snow
8:06 AM 28.9 °F 21.9 °F 21.0 °F 72% 29.68 in 2.0 mi Variable 6.9 mph - 0.00 in Snow Light Snow
8:20 AM 28.9 °F 21.9 °F 21.9 °F 75% 29.70 in 1.8 mi ESE 6.9 mph - 0.00 in Snow Light Snow
8:52 AM 28.0 °F 18.6 °F 19.9 °F 72% 29.71 in 1.0 mi East 10.4 mph 19.6 mph 0.00 in Snow Light Snow
9:33 AM 28.0 °F 17.5 °F 19.0 °F 69% 29.74 in 1.5 mi SE 12.7 mph 20.7 mph 0.00 in Snow Light Snow
9:52 AM 27.0 °F 15.6 °F 19.0 °F 72% 29.74 in 1.0 mi ESE 13.8 mph 24.2 mph 0.00 in Snow Light Snow
10:23 AM 27.0 °F 18.7 °F 17.1 °F 66% 29.77 in 2.0 mi East 8.1 mph - 0.00 in Snow Light Snow
10:36 AM 28.0 °F 20.8 °F 17.1 °F 63% 29.78 in 1.8 mi Variable 6.9 mph - 0.00 in Snow Light Snow
10:52 AM 27.0 °F 20.5 °F 17.1 °F 66% 29.79 in 1.5 mi Variable 5.8 mph - 0.00 in Snow Light Snow
11:52 AM 27.0 °F 19.5 °F 17.1 °F 66% 29.78 in 1.2 mi Variable 6.9 mph 17.3 mph 0.00 in Snow Light Snow
12:11 PM 26.1 °F 15.6 °F 17.1 °F 69% 29.79 in 2.0 mi SE 11.5 mph 21.9 mph 0.00 in Snow Light Snow
12:25 PM 25.0 °F 14.2 °F 17.1 °F 72% 29.79 in 3.0 mi SE 11.5 mph 18.4 mph 0.00 in Snow Light Snow
12:52 PM 26.1 °F 16.2 °F 15.1 °F 63% 29.78 in 8.0 mi East 10.4 mph 20.7 mph 0.00 in Snow Light Snow
1:52 PM 27.0 °F 23.0 °F 15.1 °F 61% 29.79 in 10.0 mi Variable 3.5 mph - 0.00 in   Overcast
2:52 PM 26.1 °F 18.4 °F 16.0 °F 66% 29.81 in 10.0 mi Variable 6.9 mph - N/A   Overcast
3:52 PM 25.0 °F 20.7 °F 17.1 °F 72% 29.82 in 10.0 mi Variable 3.5 mph - N/A   Overcast
4:52 PM 24.1 °F 16.0 °F 15.1 °F 69% 29.87 in 10.0 mi Variable 6.9 mph - N/A   Overcast
5:52 PM 24.1 °F 15.2 °F 12.9 °F 62% 29.89 in 10.0 mi NE 8.1 mph - N/A   Overcast
6:52 PM 23.0 °F 18.4 °F 15.1 °F 72% 29.91 in 10.0 mi SSE 3.5 mph - N/A   Overcast
7:52 PM 21.9 °F - 15.1 °F 75% 29.93 in 10.0 mi Calm Calm - N/A   Overcast
8:52 PM 21.9 °F - 14.0 °F 72% 29.95 in 10.0 mi Calm Calm - N/A   Overcast
9:52 PM 19.9 °F - 14.0 °F 78% 29.99 in 10.0 mi Calm Calm - N/A   Overcast
10:52 PM 19.9 °F - 14.0 °F 78% 29.99 in 10.0 mi Calm Calm - N/A   Overcast
11:52 PM 19.9 °F - 12.9 °F 74% 29.99 in 10.0 mi Calm Calm - N/A   Overcast